User: anonymous   Login
Location: Dittelbrunn
(50.0738°N, 10.2196°E)
Time: 19:01:48
(UTC+00:00)
Language:

Cosmos 1674 - Orbit

View from above orbital plane
View from above orbital plane
View from above satellite
View from above satellite

Ground track
Ground track

The orbit data is extracted from the following two-line orbital elements,

1 15944U 85069A   20330.84702004 +.00001418 +00000-0 +64028-4 0  9992
2 15944 082.5093 061.8574 0018287 072.5305 287.7926 15.20002882928694
Epoch (UTC): 25 November 2020 20:19:42
Eccentricity: 0.0018287
inclination: 82.5093°
perigee height: 493 km
apogee height: 518 km
right ascension of ascending node: 61.8574°
argument of perigee: 72.5305°
revolutions per day: 15.20002882
mean anomaly at epoch: 287.7926°
orbit number at epoch: 92869

The dashed part of the orbit path shows where the satellite is in the earth's shadow,  

DLR